This is the latest recevied weather packets stored in our database for station/object DH5DY-6. If no packets are shown the sender has not sent any weather packets the latest 10 day(s).
| Time | Temp. | Humidity | Pressure | Rain* | Wind** | Luminosity | Snow |
|---|---|---|---|---|---|---|---|
| 1787673725 | 18.89° C | 74% | 1013.4 hPa | 0 mm | - | 77 W/m² | - |
| 1787673125 | 18.89° C | 73% | 1013.4 hPa | 0 mm | - | 91 W/m² | - |
| 1787672524 | 19.44° C | 72% | 1013.4 hPa | 0 mm | - | 90 W/m² | - |
| 1787671924 | 19.44° C | 69% | 1013.4 hPa | 0 mm | - | 88 W/m² | - |
| 1787671324 | 20° C | 69% | 1013.2 hPa | 0 mm | - | 88 W/m² | - |
| 1787670725 | 20.56° C | 68% | 1013.2 hPa | 0 mm | - | 102 W/m² | - |
| 1787670124 | 20.56° C | 61% | 1013.1 hPa | 0 mm | - | 107 W/m² | - |
| 1787669524 | 20.56° C | 60% | 1013 hPa | 0 mm | - | 105 W/m² | - |
| 1787668924 | 21.11° C | 62% | 1013 hPa | 0 mm | - | 105 W/m² | - |
| 1787668323 | 21.11° C | 63% | 1012.8 hPa | 0 mm | - | 123 W/m² | - |
| 1787667725 | 21.11° C | 63% | 1012.8 hPa | 0 mm | - | 155 W/m² | - |
| 1787667125 | 21.11° C | 67% | 1012.8 hPa | 0 mm | - | 167 W/m² | - |
| 1787666524 | 21.11° C | 62% | 1012.7 hPa | 0 mm | - | 251 W/m² | - |
| 1787665324 | 21.67° C | 55% | 1012.5 hPa | 0 mm | - | 105 W/m² | - |
| 1787664724 | 21.67° C | 54% | 1012.4 hPa | 0 mm | - | 81 W/m² | - |
| 1787664124 | 21.67° C | 53% | 1012.3 hPa | 0 mm | - | 105 W/m² | - |
| 1787663524 | 21.67° C | 54% | 1012.4 hPa | 0 mm | - | 193 W/m² | - |
| 1787662924 | 21.67° C | 53% | 1012.5 hPa | 0 mm | - | 207 W/m² | - |
| 1787662324 | 21.67° C | 53% | 1012.4 hPa | 0 mm | - | 202 W/m² | - |
| 1787661723 | 21.67° C | 53% | 1012.4 hPa | 0 mm | - | 199 W/m² | - |
| 1787661123 | 21.67° C | 52% | 1012.5 hPa | 0 mm | - | 237 W/m² | - |
| 1787660524 | 21.67° C | 53% | 1012.4 hPa | 0 mm | - | 278 W/m² | - |
| 1787659924 | 21.67° C | 52% | 1012.3 hPa | 0 mm | - | 323 W/m² | - |
| 1787659323 | 21.67° C | 52% | 1012.3 hPa | 0 mm | - | 316 W/m² | - |
| 1787658723 | 21.67° C | 53% | 1012.3 hPa | 0 mm | - | 283 W/m² | - |
* Rain latest hour (hover to see other rain measurements)
** Current wind speed in m/s (hover to see current wind gust speed)